Total_Precipitation_Accumulation
1.36 1.35 1.30 1.30 1.27 1.33 1.31 1.22 1.03 0.85 0.70 0.60 0.52 0.52 0.54 0.55 0.66 0.71 0.90 0.91 0.81 0.95 1.15 1.24 1.18 1.10 1.00 0.90 0.82 0.77 0.72 0.69 0.62 0.52 0.42 0.38 0.36 0.33 0.33 0.33 0.33 0.33 0.35
1.66 1.58 1.63 1.66 1.50 1.51 1.59 1.59 1.42 1.21 0.97 0.83 0.74 0.70 0.68 0.64 0.74 0.84 0.98 1.05 1.00 0.99 1.20 1.39 1.45 1.40 1.28 1.17 1.07 0.93 0.86 0.83 0.78 0.68 0.60 0.51 0.44 0.41 0.41 0.38 0.35 0.32 0.32
1.92 1.84 1.87 1.89 1.67 1.63 1.78 1.88 1.75 1.57 1.26 1.06 1.02 0.97 0.91 0.94 0.96 1.04 1.16 1.24 1.23 1.16 1.23 1.25 1.30 1.34 1.34 1.32 1.25 1.15 1.05 0.92 0.84 0.79 0.75 0.67 0.57 0.51 0.46 0.42 0.40 0.38 0.35
2.03 2.07 2.01 1.92 1.86 1.91 2.09 2.23 2.10 1.96 1.74 1.53 1.40 1.22 1.12 1.11 1.09 1.18 1.18 1.24 1.47 1.44 1.30 1.15 1.16 1.24 1.28 1.37 1.36 1.28 1.19 1.06 0.94 0.87 0.82 0.79 0.72 0.61 0.53 0.48 0.45 0.44 0.40
2.24 2.33 2.32 2.30 2.27 2.28 2.32 2.26 2.31 2.17 2.18 2.01 1.67 1.45 1.32 1.27 1.30 1.31 1.30 1.32 1.41 1.50 1.44 1.28 1.18 1.20 1.20 1.27 1.30 1.35 1.34 1.23 1.08 0.98 0.93 0.91 0.86 0.75 0.64 0.58 0.54 0.50 0.47
2.68 2.71 2.66 2.69 2.73 2.76 2.59 2.50 2.45 2.26 2.15 2.08 1.81 1.64 1.53 1.42 1.32 1.29 1.25 1.25 1.27 1.25 1.27 1.25 1.24 1.15 1.16 1.16 1.18 1.25 1.31 1.31 1.29 1.20 1.10 1.08 1.01 0.88 0.75 0.67 0.63 0.60 0.56
3.25 3.23 3.21 3.13 3.00 2.91 2.77 2.58 2.41 2.29 2.14 1.96 1.89 1.66 1.43 1.26 1.12 1.06 1.09 1.11 1.07 1.04 1.07 1.15 1.20 1.15 1.10 1.07 1.06 1.14 1.29 1.38 1.39 1.29 1.18 1.13 1.05 0.95 0.87 0.79 0.74 0.67 0.64
3.92 3.75 3.62 3.37 3.04 2.85 2.75 2.57 2.36 2.20 2.03 1.86 1.79 1.74 1.46 1.23 0.98 0.85 0.86 0.87 0.91 0.96 0.97 0.94 1.00 0.96 0.89 0.87 0.92 1.05 1.11 1.15 1.18 1.20 1.18 1.13 1.03 0.97 0.94 0.91 0.88 0.84 0.79
4.03 3.75 3.44 3.21 2.96 2.77 2.63 2.54 2.38 2.23 2.04 1.86 1.72 1.76 1.65 1.43 1.13 0.95 0.83 0.80 0.82 0.88 0.90 0.86 0.83 0.79 0.75 0.76 0.85 0.94 1.04 1.06 1.06 1.08 1.10 1.09 1.03 0.98 0.97 0.96 0.97 0.98 0.99
3.70 3.27 3.02 2.98 2.79 2.58 2.41 2.22 2.06 1.97 1.90 1.79 1.69 1.56 1.45 1.36 1.26 1.12 1.01 0.95 0.91 0.91 0.93 0.92 0.93 0.89 0.81 0.78 0.82 0.86 0.86 0.84 0.84 0.80 0.79 0.79 0.81 0.81 0.83 0.87 0.94 1.01 1.05
3.16 2.89 2.66 2.66 2.55 2.31 2.07 1.81 1.62 1.54 1.53 1.55 1.51 1.45 1.37 1.25 1.08 0.97 0.98 0.96 0.97 0.95 0.93 0.92 0.92 0.90 0.84 0.78 0.73 0.78 0.81 0.76 0.78 0.77 0.72 0.69 0.71 0.75 0.80 0.84 0.91 1.01 1.08
2.60 2.36 2.11 1.95 1.82 1.64 1.50 1.39 1.27 1.24 1.23 1.28 1.30 1.23 1.18 1.15 1.08 1.02 0.97 0.93 0.99 1.07 0.99 0.89 0.82 0.76 0.74 0.73 0.75 0.87 0.77 0.75 0.74 0.75 0.71 0.66 0.67 0.71 0.74 0.78 0.85 0.95 1.05
1.96 1.74 1.54 1.40 1.33 1.23 1.16 1.11 1.09 1.06 1.01 0.99 1.00 1.01 1.01 0.96 0.94 0.98 1.04 1.08 1.06 1.07 1.06 0.99 0.83 0.72 0.69 0.69 0.76 0.85 0.79 0.73 0.68 0.63 0.58 0.52 0.48 0.47 0.48 0.52 0.60 0.71 0.84
1.42 1.30 1.14 1.03 1.00 1.00 0.97 0.94 0.91 0.86 0.79 0.74 0.74 0.77 0.81 0.79 0.83 0.93 1.01 1.11 1.19 1.14 1.00 0.93 0.87 0.77 0.70 0.67 0.79 0.80 0.72 0.66 0.60 0.54 0.47 0.40 0.36 0.35 0.36 0.36 0.37 0.40 0.47
0.96 0.88 0.80 0.77 0.75 0.71 0.66 0.61 0.61 0.64 0.66 0.65 0.63 0.64 0.67 0.69 0.73 0.80 0.87 0.96 1.07 1.12 1.03 0.88 0.85 0.79 0.71 0.74 0.93 0.79 0.69 0.66 0.55 0.45 0.39 0.36 0.34 0.32 0.30 0.27 0.25 0.25 0.27
0.59 0.56 0.52 0.51 0.53 0.56 0.53 0.50 0.51 0.54 0.56 0.56 0.57 0.55 0.56 0.57 0.60 0.66 0.73 0.77 0.84 0.93 0.93 0.79 0.71 0.68 0.67 0.68 0.86 0.75 0.75 0.71 0.53 0.41 0.32 0.28 0.27 0.26 0.26 0.25 0.23 0.23 0.24
0.44 0.43 0.43 0.42 0.43 0.47 0.50 0.53 0.55 0.55 0.61 0.58 0.56 0.54 0.51 0.50 0.52 0.53 0.59 0.65 0.70 0.76 0.88 0.83 0.70 0.65 0.66 0.67 0.69 0.63 0.60 0.55 0.49 0.46 0.35 0.30 0.27 0.26 0.25 0.26 0.26 0.26 0.28
0.42 0.42 0.44 0.41 0.39 0.38 0.41 0.46 0.49 0.51 0.56 0.57 0.55 0.52 0.48 0.47 0.49 0.50 0.52 0.56 0.64 0.73 0.84 0.89 0.76 0.65 0.62 0.60 0.58 0.54 0.46 0.42 0.42 0.47 0.38 0.30 0.26 0.25 0.29 0.25 0.21 0.22 0.26
0.38 0.36 0.36 0.35 0.35 0.36 0.35 0.35 0.36 0.39 0.43 0.47 0.48 0.51 0.51 0.49 0.47 0.48 0.50 0.54 0.61 0.70 0.82 0.86 0.78 0.69 0.64 0.62 0.68 0.62 0.52 0.58 0.49 0.45 0.39 0.33 0.29 0.28 0.49 0.52 0.27 0.22 0.25
0.33 0.30 0.27 0.25 0.26 0.26 0.25 0.23 0.22 0.24 0.27 0.30 0.33 0.41 0.48 0.51 0.49 0.52 0.55 0.56 0.60 0.68 0.73 0.77 0.71 0.64 0.64 0.64 0.72 0.77 0.71 0.64 0.56 0.37 0.39 0.34 0.33 0.37 0.72 1.25 0.71 0.38 0.32
0.29 0.26 0.23 0.20 0.19 0.19 0.18 0.16 0.16 0.16 0.20 0.23 0.25 0.30 0.37 0.42 0.47 0.48 0.50 0.54 0.60 0.68 0.71 0.75 0.69 0.64 0.61 0.70 0.77 0.76 0.71 0.66 0.55 0.44 0.48 0.42 0.56 0.90 1.42 2.05 1.58 0.91 0.65
0.29 0.23 0.18 0.16 0.15 0.15 0.16 0.15 0.14 0.17 0.19 0.22 0.25 0.27 0.26 0.28 0.30 0.30 0.36 0.44 0.52 0.61 0.70 0.76 0.74 0.72 0.65 0.69 0.77 0.78 0.78 0.75 0.66 0.47 0.48 0.49 0.76 1.51 2.21 2.58 2.14 1.34 1.00
0.28 0.25 0.19 0.16 0.16 0.15 0.12 0.11 0.11 0.15 0.23 0.28 0.30 0.28 0.24 0.23 0.29 0.32 0.31 0.34 0.44 0.50 0.62 0.77 0.83 0.75 0.71 0.74 0.85 0.89 0.84 0.83 0.78 0.60 0.61 0.65 0.93 1.78 2.11 2.33 2.13 1.45 1.16
0.28 0.26 0.22 0.18 0.18 0.14 0.10 0.09 0.10 0.13 0.20 0.22 0.22 0.25 0.30 0.33 0.29 0.26 0.26 0.36 0.47 0.55 0.60 0.65 0.75 0.70 0.66 0.68 0.75 0.81 0.80 0.80 0.74 0.65 0.66 0.79 1.05 1.65 1.76 1.90 1.96 1.51 1.23
0.31 0.27 0.23 0.21 0.21 0.17 0.10 0.08 0.08 0.13 0.17 0.17 0.16 0.18 0.20 0.26 0.22 0.22 0.32 0.48 0.55 0.66 0.69 0.81 0.80 0.73 0.72 0.70 0.62 0.63 0.82 0.95 0.90 0.68 0.61 0.77 1.01 1.33 1.44 1.58 1.59 1.47 1.34
0.30 0.26 0.24 0.23 0.21 0.19 0.11 0.08 0.07 0.12 0.16 0.15 0.18 0.22 0.18 0.14 0.16 0.22 0.34 0.54 0.69 0.75 0.88 1.07 1.02 0.95 0.87 0.83 0.70 0.67 0.89 1.07 1.06 0.87 0.67 0.73 0.90 1.07 1.29 1.35 1.29 1.25 1.33